Date String (YYYY-MM-DD hh:mm:ss) UTC,Instrument flags,Ambient pressure (hPa),Sample flow (lpm),Bypass flow (lpm),Sample temperature (°C),Ambient temperature (°C),ASC tube jacket temperature (°C),LED temperature (°C),Box temperature (°C),Sample RH (%),Span deviation,Mass concentration (μg/m³),Mass concentration (μg/m³),Mass concentration (μg/m³)
DateTimeUTC,F1_M11,P_M11,Q1_M11,Q2_M11,T1_M11,T2_M11,T3_M11,T4_M11,T5_M11,U1_M11,ZSPAN_M11,X0_M11,X2_M11,X1_M11
2021-12-02 09:00:00,,0828.9,5.00,0.00,29.9,29.0,00.0,38.9,31.6,07.6,0000.0,0000.87,0000.40,0000.21
2021-12-02 09:01:00,,0828.9,5.00,0.00,29.9,29.0,00.0,38.9,31.6,07.6,0000.0,0000.93,0000.43,0000.21
2021-12-02 09:02:00,,0828.9,5.00,0.00,29.9,29.0,00.0,38.9,31.6,07.6,0000.0,0000.86,0000.42,0000.21
2021-12-02 09:03:00,,0829.0,5.00,0.00,29.9,29.0,00.0,38.9,31.6,07.6,0000.0,0000.85,0000.41,0000.21
2021-12-02 09:04:00,,0829.0,5.00,0.00,29.9,29.0,00.0,38.9,31.6,07.6,0000.0,0000.87,0000.42,0000.21
2021-12-02 09:05:00,,0829.0,5.00,0.00,29.9,29.0,00.0,38.9,31.6,07.5,0000.0,0000.82,0000.40,0000.21
2021-12-02 09:06:00,,0829.0,5.00,0.00,29.9,29.0,00.0,38.9,31.6,07.5,0000.0,0000.80,0000.38,0000.21
2021-12-02 09:07:00,,0829.0,5.00,0.00,29.9,29.0,00.0,38.9,31.6,07.5,0000.0,0000.85,0000.40,0000.21
2021-12-02 09:08:00,,0829.0,4.98,0.00,29.9,29.0,00.0,38.9,31.6,07.6,0000.0,0000.86,0000.40,0000.22
2021-12-02 09:09:00,,0828.9,5.00,0.00,29.9,29.0,00.0,38.9,31.6,07.5,0000.0,0000.95,0000.43,0000.21
2021-12-02 09:10:00,,0828.9,5.00,0.00,29.9,29.0,00.0,38.9,31.6,07.4,0000.0,0000.90,0000.42,0000.22
2021-12-02 09:11:00,,0828.8,5.01,0.00,29.9,29.0,00.0,38.9,31.6,07.4,0000.0,0000.90,0000.42,0000.21
2021-12-02 09:12:00,,0828.8,5.00,0.00,29.9,29.0,00.0,38.9,31.6,07.4,0000.0,0000.86,0000.41,0000.21
2021-12-02 09:13:00,,0828.9,4.99,0.00,29.9,29.0,00.0,38.9,31.6,07.4,0000.0,0000.83,0000.39,0000.20
2021-12-02 09:14:00,,0828.8,5.01,0.00,29.9,29.0,00.0,38.9,31.6,07.4,0000.0,0000.80,0000.38,0000.19
2021-12-02 09:15:00,,0828.8,4.99,0.00,29.9,29.0,00.0,38.9,31.6,07.4,0000.0,0000.80,0000.37,0000.19
2021-12-02 09:16:00,,0829.3,5.02,0.00,29.9,29.0,00.0,38.9,31.6,07.4,0000.0,0000.87,0000.40,0000.20
2021-12-02 09:17:00,,0829.3,5.00,0.00,29.9,29.0,00.0,38.9,31.6,07.4,0000.0,0000.89,0000.40,0000.19
2021-12-02 09:18:00,,0829.1,4.99,0.00,29.9,29.0,00.0,38.9,31.6,07.4,0000.0,0000.95,0000.41,0000.19
2021-12-02 09:19:00,,0829.1,5.01,0.00,29.9,29.0,00.0,38.9,31.6,07.3,0000.0,0000.92,0000.40,0000.18
2021-12-02 09:20:00,,0828.9,4.99,0.00,29.9,28.9,00.0,38.9,31.6,07.3,0000.0,0000.80,0000.35,0000.19
2021-12-02 09:21:00,,0828.9,5.02,0.00,29.9,28.9,00.0,38.9,31.6,07.3,0000.0,0000.79,0000.35,0000.18
2021-12-02 09:22:00,,0828.8,4.99,0.00,29.9,28.9,00.0,38.9,31.6,07.3,0000.0,0000.63,0000.32,0000.18
2021-12-02 09:23:00,,0828.8,4.99,0.00,29.9,28.9,00.0,38.9,31.5,07.3,0000.0,0000.62,0000.31,0000.18
2021-12-02 09:24:00,,0828.9,5.02,0.00,29.9,28.9,00.0,38.9,31.5,07.3,0000.0,0000.70,0000.33,0000.19
2021-12-02 09:25:00,,0828.8,5.00,0.00,29.9,28.9,00.0,38.9,31.6,07.3,0000.0,0000.79,0000.34,0000.19
2021-12-02 09:26:00,,0828.8,4.99,0.00,29.9,28.9,00.0,38.9,31.6,07.3,0000.0,0000.80,0000.35,0000.20
2021-12-02 09:27:00,,0828.8,5.00,0.00,29.9,28.9,00.0,38.9,31.6,07.3,0000.0,0000.77,0000.34,0000.19
2021-12-02 09:28:00,,0828.8,4.99,0.00,29.9,28.9,00.0,38.9,31.5,07.3,0000.0,0000.76,0000.33,0000.19
2021-12-02 09:29:00,,0828.9,5.01,0.00,29.9,28.9,00.0,38.9,31.6,07.3,0000.0,0000.74,0000.33,0000.19
2021-12-02 09:30:00,,0828.8,5.00,0.00,29.8,28.9,00.0,38.9,31.6,07.3,0000.0,0000.74,0000.33,0000.19
2021-12-02 09:31:00,,0828.9,5.01,0.00,29.8,28.9,00.0,38.8,31.5,07.3,0000.0,0000.75,0000.34,0000.19
2021-12-02 09:32:00,,0828.8,4.99,0.00,29.8,28.9,00.0,38.8,31.5,07.3,0000.0,0000.72,0000.34,0000.20
2021-12-02 09:33:00,,0828.8,5.00,0.00,29.8,28.9,00.0,38.8,31.5,07.4,0000.0,0000.76,0000.35,0000.20
2021-12-02 09:34:00,,0828.8,5.01,0.00,29.8,28.9,00.0,38.8,31.5,07.4,0000.0,0000.77,0000.35,0000.20
2021-12-02 09:35:00,,0828.9,4.98,0.00,29.8,28.9,00.0,38.8,31.5,07.3,0000.0,0000.77,0000.36,0000.20
2021-12-02 09:36:00,,0829.1,5.01,0.00,29.8,28.9,00.0,38.8,31.5,07.3,0000.0,0000.77,0000.37,0000.20
2021-12-02 09:37:00,,0829.3,4.98,0.00,29.8,28.9,00.0,38.8,31.5,07.3,0000.0,0000.80,0000.39,0000.20
2021-12-02 09:38:00,,0829.1,5.00,0.00,29.8,28.9,00.0,38.8,31.5,07.3,0000.0,0001.68,0000.40,0000.20
2021-12-02 09:39:00,,0828.9,5.00,0.00,29.8,28.9,00.0,38.8,31.5,07.3,0000.0,0001.66,0000.40,0000.21
2021-12-02 09:40:00,,0828.8,4.98,0.00,29.8,28.9,00.0,38.8,31.5,07.3,0000.0,0001.57,0000.37,0000.21
2021-12-02 09:41:00,,0829.0,5.01,0.00,29.8,28.9,00.0,38.8,31.5,07.3,0000.0,0001.56,0000.37,0000.21
2021-12-02 09:42:00,,0829.1,5.01,0.00,29.8,28.9,00.0,38.8,31.5,07.3,0000.0,0001.58,0000.37,0000.21
2021-12-02 09:43:00,,0828.8,5.00,0.00,29.8,28.9,00.0,38.8,31.5,07.3,0000.0,0001.59,0000.37,0000.21
2021-12-02 09:44:00,,0828.9,4.99,0.00,29.8,28.9,00.0,38.8,31.5,07.3,0000.0,0001.55,0000.35,0000.20
2021-12-02 09:45:00,,0828.9,5.01,0.00,29.8,28.9,00.0,38.8,31.5,07.3,0000.0,0001.50,0000.34,0000.20
2021-12-02 09:46:00,,0829.0,5.00,0.00,29.8,28.9,00.0,38.8,31.5,07.3,0000.0,0001.42,0000.32,0000.20
2021-12-02 09:47:00,,0828.8,5.00,0.00,29.8,28.9,00.0,38.8,31.5,07.3,0000.0,0001.47,0000.31,0000.20
2021-12-02 09:48:00,,0828.7,4.98,0.00,29.8,28.9,00.0,38.8,31.4,07.3,0000.0,0001.38,0000.28,0000.20
2021-12-02 09:49:00,,0828.7,5.01,0.00,29.8,28.9,00.0,38.8,31.5,07.3,0000.0,0000.55,0000.28,0000.20
2021-12-02 09:50:00,,0828.8,5.00,0.00,29.8,28.9,00.0,38.8,31.5,07.3,0000.0,0000.60,0000.30,0000.21
2021-12-02 09:51:00,,0828.7,5.00,0.00,29.8,28.9,00.0,38.8,31.4,07.3,0000.0,0000.70,0000.33,0000.21
2021-12-02 09:52:00,,0828.7,4.99,0.00,29.8,28.8,00.0,38.8,31.3,07.3,0000.0,0000.73,0000.33,0000.21
2021-12-02 09:53:00,,0828.7,5.01,0.00,29.8,28.8,00.0,38.8,31.3,07.3,0000.0,0000.74,0000.34,0000.21
2021-12-02 09:54:00,,0828.7,4.99,0.00,29.8,28.8,00.0,38.8,31.3,07.3,0000.0,0000.72,0000.33,0000.21
2021-12-02 09:55:00,,0828.7,5.00,0.00,29.8,28.8,00.0,38.8,31.3,07.2,0000.0,0000.73,0000.34,0000.21
2021-12-02 09:56:00,,0828.7,4.99,0.00,29.8,28.8,00.0,38.8,31.4,07.3,0000.0,0000.78,0000.36,0000.21
2021-12-02 09:57:00,,0828.7,5.01,0.00,29.8,28.8,00.0,38.8,31.4,07.3,0000.0,0000.80,0000.37,0000.21
2021-12-02 09:58:00,,0828.7,4.99,0.00,29.7,28.8,00.0,38.8,31.3,07.3,0000.0,0000.71,0000.36,0000.21
2021-12-02 09:59:00,,0828.7,5.01,0.00,29.7,28.7,00.0,38.8,31.3,07.4,0000.0,0000.75,0000.36,0000.20
